Home > Time Zones > World Clock > Weather > U.S.A. > Waco > Past weeks

Flag for U.S.A. Weather past 2 weeks in Waco, Texas, U.S.A.

Now
92 °F

Sunny.


Feels Like: 95 °F
Forecast: 73 / 94 °F
Wind: 6 mph from East

Location: Waco Regional Airport

Current Time: Aug 30, 2014 at 3:31:53 PM

Latest Report: Aug 30, 2014 at 2:51 PM


Visibility: 10 mi

Pressure: 29.89 "Hg

Humidity: 44%

Dew point: 67 °F

Location of WacoLocation

Historic Weather in Waco — Graph

°F

Waco temperature yesterday

Maximum temperature yesterday: 95 °F (at 4:51 PM)
Minimum temperature yesterday: 71 °F (at 5:58 AM)
Average temperature yesterday: 81 °F

Past Weeks' High & Low Weather Summary

 TemperatureHumidityPressure
High102 °F (Aug 16, 3:51 PM)94% (Aug 17, 3:04 PM)30.05 "Hg (Aug 17, 3:04 PM)
Low71 °F (Aug 28, 6:51 AM)25% (Aug 16, 5:51 PM)29.80 "Hg (Aug 29, 5:51 PM)
Average86 °F59%29.92 "Hg
* Reported Aug 15 1:51 PM — Aug 30 1:51 PM, Waco, Weather by CustomWeather, © 2014

Note: Actual official high and low records may vary slightly from our data, if they occured in-between our weather recording intervals... More about our weather records

Advertising

Waco weather history for previous 24 hours

 ConditionsComfort  
Time TempWeatherWind HumidityBarometerVisibility
1:51 PM
Aug 30
91 °FScattered clouds.6 mph49%29.92 "Hg10 mi
12:51 PM88 °FScattered clouds.7 mph55%29.93 "Hg10 mi
11:51 AM84 °FScattered clouds.6 mph65%29.95 "Hg10 mi
10:58 AM80 °FOvercast.3 mph74%29.98 "Hg10 mi
9:51 AM77 °FOvercast.6 mph82%29.95 "Hg10 mi
8:51 AM75 °FOvercast.No wind90%29.94 "Hg10 mi
7:51 AM74 °FPassing clouds.5 mph94%29.93 "Hg10 mi
6:51 AM73 °FClear.5 mph94%29.91 "Hg10 mi
6:00 AM74 °FPassing clouds.5 mph91%29.93 "Hg10 mi
4:51 AM75 °FPassing clouds.8 mph88%29.92 "Hg10 mi
3:51 AM75 °FClear.12 mph88%29.91 "Hg10 mi
2:51 AM76 °FPassing clouds.10 mph85%29.90 "Hg10 mi
2:00 AM77 °FPassing clouds.7 mph82%29.93 "Hg10 mi
12:51 AM77 °FClear.7 mph79%29.91 "Hg10 mi
11:51 PM
Aug 29
78 °FClear.6 mph74%29.90 "Hg10 mi
10:51 PM80 °FClear.6 mph69%29.89 "Hg10 mi
9:51 PM80 °FClear.10 mph67%29.90 "Hg10 mi
8:51 PM82 °FSunny.9 mph63%29.88 "Hg10 mi
7:51 PM83 °FSunny.7 mph68%29.83 "Hg10 mi
6:51 PM90 °FSunny.17 mph50%29.80 "Hg10 mi
5:51 PM91 °FScattered clouds.15 mph52%29.80 "Hg10 mi
4:51 PM95 °FPassing clouds.7 mph40%29.81 "Hg10 mi
3:51 PM93 °FPassing clouds.3 mph47%29.81 "Hg10 mi
Weather by CustomWeather, © 2014

See weather overviewHow to use our weather pages